This demonstration page uses our WeatherBlox Daily Observations layout. Learn more.

Left ArrowRight Arrow

Hourly Observations for March 25, 2015

Temp ( °F °C ) Dew Point ( °F °C ) Humidity (%) Winds ( mph kmh ) Pressure ( in mb ) Visibility ( mi km ) Precip ( " mm )
12:53 am 00:53 Clear 50 10 47 8.3 89 89 NNE 5 7 30.27 1025 10 16 0.00 0.00
1:53 am 01:53 Clear 50 10 47 8.3 89 89 N 5 7 30.26 1025 10 16 0.00 0.00
2:53 am 02:53 Clear 49 9.4 46 7.8 90 90 NNW 3 6 30.25 1025 10 16 0.00 0.00
3:53 am 03:53 Clear 47 8.3 44 6.7 90 90 NNE 5 7 30.24 1024 10 16 0.00 0.00
4:53 am 04:53 Clear 48 8.9 45 7.2 89 89 Calm 30.23 1024 10 16 0.00 0.00
7:53 am 07:53 Sunny 47 8.3 43 6.1 86 86 Calm 30.25 1024 10 16 0.00 0.00
8:53 am 08:53 Sunny 58 14.4 45 7.2 62 62 NNW 7 11 30.25 1024 10 16 0.00 0.00
9:53 am 09:53 Sunny 63 17.2 45 7.2 52 52 N 12 19 30.25 1024 10 16 0.00 0.00
10:53 am 10:53 Sunny 67 19.4 44 6.7 44 44 N 10 17 30.25 1024 10 16 0.00 0.00
11:53 am 11:53 Sunny 71 21.7 44 6.7 38 38 NNW 12 19 30.24 1024 10 16 0.00 0.00
12:53 pm 12:53 Sunny 73 22.8 44 6.7 35 35 NNW 8 13 30.21 1023 10 16 0.00 0.00
1:53 pm 13:53 Sunny 76 24.4 44 6.7 32 32 N 7 11 30.19 1022 10 16 0.00 0.00
2:53 pm 14:53 Sunny 78 25.6 44 6.7 30 30 NNE 7 11 30.15 1021 10 16 0.00 0.00
3:53 pm 15:53 Sunny 80 26.7 44 6.7 28 28 Calm 30.14 1021 10 16 0.00 0.00
4:53 pm 16:53 Sunny 81 27.2 45 7.2 28 28 VRB 6 9 30.13 1020 10 16 0.00 0.00
5:53 pm 17:53 Sunny 80 26.7 46 7.8 30 30 N 10 17 30.12 1020 10 16 0.00 0.00
6:53 pm 18:53 Sunny 79 26.1 46 7.8 31 31 NNW 3 6 30.12 1020 10 16 0.00 0.00
7:53 pm 19:53 Clear 74 23.3 46 7.8 37 37 NNW 6 9 30.12 1020 10 16 0.00 0.00
8:53 pm 20:53 Clear 70 21.1 47 8.3 44 44 NNW 6 9 30.14 1021 10 16 0.00 0.00
9:53 pm 21:53 Clear 65 18.3 49 9.4 56 56 N 6 9 30.14 1021 10 16 0.00 0.00
10:53 pm 22:53 Clear 66 18.9 48 8.9 52 52 NW 6 9 30.15 1021 10 16 0.00 0.00
11:53 pm 23:53 Clear 62 16.7 49 9.4 62 62 NNW 5 7 30.14 1021 10 16 0.00 0.00

Powered by AerisWeather